Location: Unspecified
(40.7945°N, 0.0000°E)
Time: 02:37:54
(UTC+00:00)

Altair - Pass Details

Date: 27 January 2021
Orbit: 1501 x 1682 km, 47.2° (Epoch: 01 March)

Event Time Altitude Azimuth Distance (km) Brightness Sun altitude
Rises 05:46:05 0° 258° (WSW) 4,862 - -16.8°
Reaches altitude 10° 05:49:14 10° 261° (W) 3,895 - -16.2°
Exits shadow 05:51:19 18° 264° (W) 3,278 8.6 -15.9°
Maximum altitude 05:59:15 69° 344° (NNW) 1,779 7.7 -14.4°
Drops below altitude 10° 06:09:26 10° 68° (ENE) 3,945 10.5 -12.5°
Sets 06:12:38 0° 71° (ENE) 4,926 11.2 -11.9°
